Year,Month,Day,Hour,Minute,Value (Times are PST for windgust in km/hr)
2012,10,19,00,00,30.60
2012,10,19,00,01,22.50
2012,10,19,00,02,25.70
2012,10,19,00,03,27.40
2012,10,19,00,04,22.50
2012,10,19,00,05,24.20
2012,10,19,00,06,25.70
2012,10,19,00,07,22.50
2012,10,19,00,08,20.90
2012,10,19,00,09,22.50
2012,10,19,00,10,20.90
2012,10,19,00,11,22.50
2012,10,19,00,12,19.30
2012,10,19,00,13,22.50
2012,10,19,00,14,19.30
2012,10,19,00,15,32.20
2012,10,19,00,16,20.90
2012,10,19,00,17,27.40
2012,10,19,00,18,20.90
2012,10,19,00,19,20.90
2012,10,19,00,20,22.50
2012,10,19,00,21,20.90
2012,10,19,00,22,22.50
2012,10,19,00,23,22.50
2012,10,19,00,24,20.90
2012,10,19,00,25,19.30
2012,10,19,00,26,17.70
2012,10,19,00,27,22.50
2012,10,19,00,28,20.90
2012,10,19,00,29,25.70
2012,10,19,00,30,16.10
2012,10,19,00,31,20.90
2012,10,19,00,32,24.20
2012,10,19,00,33,17.70
2012,10,19,00,34,20.90
2012,10,19,00,35,24.20
2012,10,19,00,36,25.70
2012,10,19,00,37,17.70
2012,10,19,00,38,19.30
2012,10,19,00,39,20.90
2012,10,19,00,40,20.90
2012,10,19,00,41,19.30
2012,10,19,00,42,16.10
2012,10,19,00,43,22.50
2012,10,19,00,44,19.30
2012,10,19,00,45,19.30
2012,10,19,00,46,22.50
2012,10,19,00,47,25.70
2012,10,19,00,48,24.20
2012,10,19,00,49,25.70
2012,10,19,00,50,17.70
2012,10,19,00,51,24.20
2012,10,19,00,52,20.90
2012,10,19,00,53,17.70
2012,10,19,00,54,17.70
2012,10,19,00,55,20.90
2012,10,19,00,56,24.20
2012,10,19,00,57,19.30
2012,10,19,00,58,22.50
2012,10,19,00,59,27.40
2012,10,19,01,00,22.50
2012,10,19,01,01,17.70
2012,10,19,01,02,22.50
2012,10,19,01,03,22.50
2012,10,19,01,04,22.50
2012,10,19,01,05,16.10
2012,10,19,01,06,25.70
2012,10,19,01,07,20.90
2012,10,19,01,08,22.50
2012,10,19,01,09,19.30
2012,10,19,01,10,22.50
2012,10,19,01,11,16.10
2012,10,19,01,12,24.20
2012,10,19,01,13,19.30
2012,10,19,01,14,20.90
2012,10,19,01,15,20.90
2012,10,19,01,16,22.50
2012,10,19,01,17,20.90
2012,10,19,01,18,16.10
2012,10,19,01,19,16.10
2012,10,19,01,20,22.50
2012,10,19,01,21,32.20
2012,10,19,01,22,22.50
2012,10,19,01,23,19.30
2012,10,19,01,24,19.30
2012,10,19,01,25,17.70
2012,10,19,01,26,20.90
2012,10,19,01,27,22.50
2012,10,19,01,28,19.30
2012,10,19,01,29,20.90
2012,10,19,01,30,20.90
2012,10,19,01,31,16.10
2012,10,19,01,32,25.70
2012,10,19,01,33,20.90
2012,10,19,01,34,22.50
2012,10,19,01,35,25.70
2012,10,19,01,36,20.90
2012,10,19,01,37,17.70
2012,10,19,01,38,14.50
2012,10,19,01,39,19.30
2012,10,19,01,40,19.30
2012,10,19,01,41,19.30
2012,10,19,01,42,25.70
2012,10,19,01,43,24.20
2012,10,19,01,44,17.70
2012,10,19,01,45,19.30
2012,10,19,01,46,17.70
2012,10,19,01,47,20.90
2012,10,19,01,48,14.50
2012,10,19,01,49,17.70
2012,10,19,01,50,19.30
2012,10,19,01,51,24.20
2012,10,19,01,52,22.50
2012,10,19,01,53,22.50
2012,10,19,01,54,24.20
2012,10,19,01,55,24.20
2012,10,19,01,56,20.90
2012,10,19,01,57,19.30
2012,10,19,01,58,25.70
2012,10,19,01,59,22.50
2012,10,19,02,00,20.90
2012,10,19,02,01,16.10
2012,10,19,02,02,17.70
2012,10,19,02,03,19.30
2012,10,19,02,04,20.90
2012,10,19,02,05,17.70
2012,10,19,02,06,16.10
2012,10,19,02,07,19.30
2012,10,19,02,08,22.50
2012,10,19,02,09,25.70
2012,10,19,02,10,25.70
2012,10,19,02,11,27.40
2012,10,19,02,12,22.50
2012,10,19,02,13,24.20
2012,10,19,02,14,22.50
2012,10,19,02,15,20.90
2012,10,19,02,16,20.90
2012,10,19,02,17,22.50
2012,10,19,02,18,20.90
2012,10,19,02,19,19.30
2012,10,19,02,20,20.90
2012,10,19,02,21,25.70
2012,10,19,02,22,17.70
2012,10,19,02,23,16.10
2012,10,19,02,24,11.30
2012,10,19,02,25,16.10
2012,10,19,02,26,22.50
2012,10,19,02,27,20.90
2012,10,19,02,28,19.30
2012,10,19,02,29,19.30
2012,10,19,02,30,20.90
2012,10,19,02,31,20.90
2012,10,19,02,32,25.70
2012,10,19,02,33,19.30
2012,10,19,02,34,14.50
2012,10,19,02,35,24.20
2012,10,19,02,36,17.70
2012,10,19,02,37,17.70
2012,10,19,02,38,17.70
2012,10,19,02,39,20.90
2012,10,19,02,40,22.50
2012,10,19,02,41,22.50
2012,10,19,02,42,19.30
2012,10,19,02,43,17.70
2012,10,19,02,44,19.30
2012,10,19,02,45,11.30
2012,10,19,02,46,17.70
2012,10,19,02,47,17.70
2012,10,19,02,48,14.50
2012,10,19,02,49,17.70
2012,10,19,02,50,11.30
2012,10,19,02,51,17.70
2012,10,19,02,52,11.30
2012,10,19,02,53,9.60
2012,10,19,02,54,16.10
2012,10,19,02,55,20.90
2012,10,19,02,56,16.10
2012,10,19,02,57,14.50
2012,10,19,02,58,16.10
2012,10,19,02,59,16.10
2012,10,19,03,00,16.10
2012,10,19,03,01,16.10
2012,10,19,03,02,19.30
2012,10,19,03,03,16.10
2012,10,19,03,04,11.30
2012,10,19,03,05,16.10
2012,10,19,03,06,12.90
2012,10,19,03,07,19.30
2012,10,19,03,08,9.60
2012,10,19,03,09,16.10
2012,10,19,03,10,17.70
2012,10,19,03,11,22.50
2012,10,19,03,12,20.90
2012,10,19,03,13,11.30
2012,10,19,03,14,17.70
2012,10,19,03,15,16.10
2012,10,19,03,16,11.30
2012,10,19,03,17,20.90
2012,10,19,03,18,19.30
2012,10,19,03,19,22.50
2012,10,19,03,20,20.90
2012,10,19,03,21,16.10
2012,10,19,03,22,19.30
2012,10,19,03,23,17.70
2012,10,19,03,24,19.30
2012,10,19,03,25,22.50
2012,10,19,03,26,9.60
2012,10,19,03,27,17.70
2012,10,19,03,28,25.70
2012,10,19,03,29,20.90
2012,10,19,03,30,24.20
2012,10,19,03,31,16.10
2012,10,19,03,32,25.70
2012,10,19,03,33,19.30
2012,10,19,03,34,17.70
2012,10,19,03,35,17.70
2012,10,19,03,36,16.10
2012,10,19,03,37,20.90
2012,10,19,03,38,19.30
2012,10,19,03,39,24.20
2012,10,19,03,40,16.10
2012,10,19,03,41,14.50
2012,10,19,03,42,17.70
2012,10,19,03,43,11.30
2012,10,19,03,44,9.60
2012,10,19,03,45,9.60
2012,10,19,03,46,8.10
2012,10,19,03,47,14.50
2012,10,19,03,48,19.30
2012,10,19,03,49,9.60
2012,10,19,03,50,11.30
2012,10,19,03,51,11.30
2012,10,19,03,52,14.50
2012,10,19,03,53,8.10
2012,10,19,03,54,20.90
2012,10,19,03,55,14.50
2012,10,19,03,56,8.10
2012,10,19,03,57,6.40
2012,10,19,03,58,9.60
2012,10,19,03,59,4.80
2012,10,19,04,00,6.40
2012,10,19,04,01,8.10
2012,10,19,04,02,4.80
2012,10,19,04,03,4.80
2012,10,19,04,04,3.20
2012,10,19,04,05,8.10
2012,10,19,04,06,6.40
2012,10,19,04,07,11.30
2012,10,19,04,08,11.30
2012,10,19,04,09,6.40
2012,10,19,04,10,3.20
2012,10,19,04,11,4.80
2012,10,19,04,12,9.60
2012,10,19,04,13,8.10
2012,10,19,04,14,11.30
2012,10,19,04,15,8.10
2012,10,19,04,16,6.40
2012,10,19,04,17,4.80
2012,10,19,04,18,6.40
2012,10,19,04,19,6.40
2012,10,19,04,20,1.60
2012,10,19,04,21,3.20
2012,10,19,04,22,4.80
2012,10,19,04,23,11.30
2012,10,19,04,24,8.10
2012,10,19,04,25,9.60
2012,10,19,04,26,4.80
2012,10,19,04,27,6.40
2012,10,19,04,28,4.80
2012,10,19,04,29,8.10
2012,10,19,04,30,6.40
2012,10,19,04,31,4.80
2012,10,19,04,32,3.20
2012,10,19,04,33,12.90
2012,10,19,04,34,9.60
2012,10,19,04,35,6.40
2012,10,19,04,36,3.20
2012,10,19,04,37,6.40
2012,10,19,04,38,6.40
2012,10,19,04,39,4.80
2012,10,19,04,41,4.80
2012,10,19,04,42,4.80
2012,10,19,04,44,1.60
2012,10,19,04,45,3.20
2012,10,19,04,46,3.20
2012,10,19,04,47,4.80
2012,10,19,04,48,16.10
2012,10,19,04,49,12.90
2012,10,19,04,50,16.10
2012,10,19,04,51,16.10
2012,10,19,04,52,14.50
2012,10,19,04,53,16.10
2012,10,19,04,54,14.50
2012,10,19,04,55,17.70
2012,10,19,04,56,17.70
2012,10,19,04,57,20.90
2012,10,19,04,58,19.30
2012,10,19,04,59,16.10
2012,10,19,05,00,16.10
2012,10,19,05,01,24.20
2012,10,19,05,02,33.80
2012,10,19,05,03,27.40
2012,10,19,05,04,16.10
2012,10,19,05,05,30.60
2012,10,19,05,06,19.30
2012,10,19,05,07,19.30
2012,10,19,05,08,27.40
2012,10,19,05,09,19.30
2012,10,19,05,10,20.90
2012,10,19,05,11,19.30
2012,10,19,05,12,20.90
2012,10,19,05,13,22.50
2012,10,19,05,14,25.70
2012,10,19,05,15,22.50
2012,10,19,05,16,24.20
2012,10,19,05,17,29.00
2012,10,19,05,18,19.30
2012,10,19,05,19,19.30
2012,10,19,05,20,19.30
2012,10,19,05,21,22.50
2012,10,19,05,22,20.90
2012,10,19,05,23,19.30
2012,10,19,05,24,16.10
2012,10,19,05,25,17.70
2012,10,19,05,26,20.90
2012,10,19,05,27,19.30
2012,10,19,05,28,17.70
2012,10,19,05,29,20.90
2012,10,19,05,30,24.20
2012,10,19,05,31,32.20
2012,10,19,05,32,25.70
2012,10,19,05,33,32.20
2012,10,19,05,34,27.40
2012,10,19,05,35,24.20
2012,10,19,05,36,27.40
2012,10,19,05,37,24.20
2012,10,19,05,38,19.30
2012,10,19,05,39,19.30
2012,10,19,05,40,17.70
2012,10,19,05,41,25.70
2012,10,19,05,42,27.40
2012,10,19,05,43,24.20
2012,10,19,05,44,37.00
2012,10,19,05,45,35.40
2012,10,19,05,46,27.40
2012,10,19,05,47,22.50
2012,10,19,05,48,14.50
2012,10,19,05,49,19.30
2012,10,19,05,50,25.70
2012,10,19,05,51,30.60
2012,10,19,05,52,35.40
2012,10,19,05,53,22.50
2012,10,19,05,54,25.70
2012,10,19,05,55,20.90
2012,10,19,05,56,17.70
2012,10,19,05,57,27.40
2012,10,19,05,58,30.60
2012,10,19,05,59,29.00
2012,10,19,06,00,27.40
2012,10,19,06,01,37.00
2012,10,19,06,02,30.60
2012,10,19,06,03,20.90
2012,10,19,06,04,16.10
2012,10,19,06,05,30.60
2012,10,19,06,06,20.90
2012,10,19,06,07,19.30
2012,10,19,06,08,27.40
2012,10,19,06,09,29.00
2012,10,19,06,10,24.20
2012,10,19,06,11,29.00
2012,10,19,06,12,17.70
2012,10,19,06,13,27.40
2012,10,19,06,14,11.30
2012,10,19,06,15,16.10
2012,10,19,06,16,19.30
2012,10,19,06,17,16.10
2012,10,19,06,18,32.20
2012,10,19,06,19,16.10
2012,10,19,06,20,11.30
2012,10,19,06,21,9.60
2012,10,19,06,22,16.10
2012,10,19,06,23,11.30
2012,10,19,06,24,8.10
2012,10,19,06,25,8.10
2012,10,19,06,26,6.40
2012,10,19,06,27,6.40
2012,10,19,06,28,3.20
2012,10,19,06,29,4.80
2012,10,19,06,30,25.70
2012,10,19,06,31,22.50
2012,10,19,06,32,17.70
2012,10,19,06,33,19.30
2012,10,19,06,34,20.90
2012,10,19,06,35,17.70
2012,10,19,06,36,20.90
2012,10,19,06,37,14.50
2012,10,19,06,38,16.10
2012,10,19,06,39,9.60
2012,10,19,06,40,8.10
2012,10,19,06,41,6.40
2012,10,19,06,42,11.30
2012,10,19,06,43,9.60
2012,10,19,06,44,19.30
2012,10,19,06,45,14.50
2012,10,19,06,46,14.50
2012,10,19,06,47,9.60
2012,10,19,06,48,19.30
2012,10,19,06,49,11.30
2012,10,19,06,50,16.10
2012,10,19,06,51,22.50
2012,10,19,06,52,22.50
2012,10,19,06,53,19.30
2012,10,19,06,54,22.50
2012,10,19,06,55,24.20
2012,10,19,06,56,9.60
2012,10,19,06,57,27.40
2012,10,19,06,58,32.20
2012,10,19,06,59,30.60
2012,10,19,07,00,30.60
2012,10,19,07,01,27.40
2012,10,19,07,02,35.40
2012,10,19,07,03,32.20
2012,10,19,07,04,30.60
2012,10,19,07,05,29.00
2012,10,19,07,06,45.10
2012,10,19,07,07,30.60
2012,10,19,07,08,48.30
2012,10,19,07,09,51.50
2012,10,19,07,10,35.40
2012,10,19,07,11,35.40
2012,10,19,07,12,35.40
2012,10,19,07,13,33.80
2012,10,19,07,14,33.80
2012,10,19,07,15,33.80
2012,10,19,07,16,48.30
2012,10,19,07,17,30.60
2012,10,19,07,18,38.60
2012,10,19,07,19,38.60
2012,10,19,07,20,35.40
2012,10,19,07,21,33.80
2012,10,19,07,22,35.40
2012,10,19,07,23,40.20
2012,10,19,07,24,33.80
2012,10,19,07,25,33.80
2012,10,19,07,26,48.30
2012,10,19,07,27,38.60
2012,10,19,07,28,29.00
2012,10,19,07,29,33.80
2012,10,19,07,30,41.80
2012,10,19,07,31,40.20
2012,10,19,07,32,33.80
2012,10,19,07,33,48.30
2012,10,19,07,34,45.10
2012,10,19,07,35,41.80
2012,10,19,07,36,43.50
2012,10,19,07,37,38.60
2012,10,19,07,38,35.40
2012,10,19,07,39,35.40
2012,10,19,07,40,32.20
2012,10,19,07,41,37.00
2012,10,19,07,42,45.10
2012,10,19,07,43,38.60
2012,10,19,07,44,30.60
2012,10,19,07,45,40.20
2012,10,19,07,46,41.80
2012,10,19,07,47,37.00
2012,10,19,07,48,38.60
2012,10,19,07,49,35.40
2012,10,19,07,50,37.00
2012,10,19,07,51,41.80
2012,10,19,07,52,45.10
2012,10,19,07,53,38.60
2012,10,19,07,54,32.20
2012,10,19,07,55,30.60
2012,10,19,07,56,30.60
2012,10,19,07,57,40.20
2012,10,19,07,58,43.50
2012,10,19,07,59,33.80
2012,10,19,08,00,37.00
2012,10,19,08,01,45.10
2012,10,19,08,02,38.60
2012,10,19,08,03,30.60
2012,10,19,08,04,30.60
2012,10,19,08,05,32.20
2012,10,19,08,06,38.60
2012,10,19,08,07,43.50
2012,10,19,08,08,46.70
2012,10,19,08,09,37.00
2012,10,19,08,10,27.40
2012,10,19,08,11,27.40
2012,10,19,08,12,30.60
2012,10,19,08,13,32.20
2012,10,19,08,14,29.00
2012,10,19,08,15,41.80
2012,10,19,08,16,32.20
2012,10,19,08,17,40.20
2012,10,19,08,18,48.30
2012,10,19,08,19,38.60
2012,10,19,08,20,40.20
2012,10,19,08,21,37.00
2012,10,19,08,22,33.80
2012,10,19,08,23,32.20
2012,10,19,08,24,29.00
2012,10,19,08,25,25.70
2012,10,19,08,26,29.00
2012,10,19,08,27,38.60
2012,10,19,08,28,30.60
2012,10,19,08,29,32.20
2012,10,19,08,30,35.40
2012,10,19,08,31,41.80
2012,10,19,08,32,38.60
2012,10,19,08,33,35.40
2012,10,19,08,34,41.80
2012,10,19,08,35,24.20
2012,10,19,08,36,33.80
2012,10,19,08,37,33.80
2012,10,19,08,38,32.20
2012,10,19,08,39,35.40
2012,10,19,08,40,38.60
2012,10,19,08,41,43.50
2012,10,19,08,42,30.60
2012,10,19,08,43,43.50
2012,10,19,08,44,33.80
2012,10,19,08,45,29.00
2012,10,19,08,46,33.80
2012,10,19,08,47,29.00
2012,10,19,08,48,32.20
2012,10,19,08,49,25.70
2012,10,19,08,50,25.70
2012,10,19,08,51,30.60
2012,10,19,08,52,35.40
2012,10,19,08,53,27.40
2012,10,19,08,54,22.50
2012,10,19,08,55,27.40
2012,10,19,08,56,27.40
2012,10,19,08,57,29.00
2012,10,19,08,58,38.60
2012,10,19,08,59,22.50
2012,10,19,09,00,22.50
2012,10,19,09,01,19.30
2012,10,19,09,02,38.60
2012,10,19,09,03,29.00
2012,10,19,09,04,35.40
2012,10,19,09,05,30.60
2012,10,19,09,06,30.60
2012,10,19,09,07,29.00
2012,10,19,09,08,33.80
2012,10,19,09,09,32.20
2012,10,19,09,10,27.40
2012,10,19,09,11,35.40
2012,10,19,09,12,40.20
2012,10,19,09,13,38.60
2012,10,19,09,14,43.50
2012,10,19,09,15,30.60
2012,10,19,09,16,32.20
2012,10,19,09,17,32.20
2012,10,19,09,18,27.40
2012,10,19,09,19,22.50
2012,10,19,09,20,27.40
2012,10,19,09,21,25.70
2012,10,19,09,22,30.60
2012,10,19,09,23,35.40
2012,10,19,09,24,37.00
2012,10,19,09,25,33.80
2012,10,19,09,26,30.60
2012,10,19,09,27,40.20
2012,10,19,09,28,35.40
2012,10,19,09,29,40.20
2012,10,19,09,30,41.80
2012,10,19,09,31,25.70
2012,10,19,09,32,37.00
2012,10,19,09,33,41.80
2012,10,19,09,34,35.40
2012,10,19,09,35,33.80
2012,10,19,09,36,33.80
2012,10,19,09,37,30.60
2012,10,19,09,38,37.00
2012,10,19,09,39,46.70
2012,10,19,09,40,32.20
2012,10,19,09,41,24.20
2012,10,19,09,42,43.50
2012,10,19,09,43,37.00
2012,10,19,09,44,33.80
2012,10,19,09,45,32.20
2012,10,19,09,46,35.40
2012,10,19,09,47,29.00
2012,10,19,09,48,41.80
2012,10,19,09,49,29.00
2012,10,19,09,50,29.00
2012,10,19,09,51,35.40
2012,10,19,09,52,32.20
2012,10,19,09,53,32.20
2012,10,19,09,54,35.40
2012,10,19,09,55,38.60
2012,10,19,09,56,35.40
2012,10,19,09,57,24.20
2012,10,19,09,58,25.70
2012,10,19,09,59,29.00
2012,10,19,10,00,33.80
2012,10,19,10,01,27.40
2012,10,19,10,02,27.40
2012,10,19,10,03,27.40
2012,10,19,10,04,32.20
2012,10,19,10,05,38.60
2012,10,19,10,06,35.40
2012,10,19,10,07,33.80
2012,10,19,10,08,24.20
2012,10,19,10,09,29.00
2012,10,19,10,10,24.20
2012,10,19,10,11,19.30
2012,10,19,10,12,19.30
2012,10,19,10,13,29.00
2012,10,19,10,14,20.90
2012,10,19,10,15,38.60
2012,10,19,10,16,41.80
2012,10,19,10,17,40.20
2012,10,19,10,18,33.80
2012,10,19,10,19,27.40
2012,10,19,10,20,38.60
2012,10,19,10,21,32.20
2012,10,19,10,22,27.40
2012,10,19,10,23,30.60
2012,10,19,10,24,33.80
2012,10,19,10,25,33.80
2012,10,19,10,26,35.40
2012,10,19,10,27,35.40
2012,10,19,10,28,38.60
2012,10,19,10,29,32.20
2012,10,19,10,30,33.80
2012,10,19,10,31,40.20
2012,10,19,10,32,40.20
2012,10,19,10,33,32.20
2012,10,19,10,34,29.00
2012,10,19,10,35,40.20
2012,10,19,10,36,32.20
2012,10,19,10,37,25.70
2012,10,19,10,38,33.80
2012,10,19,10,39,33.80
2012,10,19,10,40,27.40
2012,10,19,10,41,40.20
2012,10,19,10,42,37.00
2012,10,19,10,43,24.20
2012,10,19,10,44,25.70
2012,10,19,10,45,38.60
2012,10,19,10,46,38.60
2012,10,19,10,47,33.80
2012,10,19,10,48,25.70
2012,10,19,10,49,20.90
2012,10,19,10,50,20.90
2012,10,19,10,51,14.50
2012,10,19,10,52,20.90
2012,10,19,10,53,24.20
2012,10,19,10,54,25.70
2012,10,19,10,55,29.00
2012,10,19,10,56,25.70
2012,10,19,10,57,27.40
2012,10,19,10,58,17.70
2012,10,19,10,59,17.70
2012,10,19,11,00,17.70
2012,10,19,11,01,16.10
2012,10,19,11,02,11.30
2012,10,19,11,03,19.30
2012,10,19,11,04,19.30
2012,10,19,11,05,22.50
2012,10,19,11,06,22.50
2012,10,19,11,07,20.90
2012,10,19,11,08,16.10
2012,10,19,11,09,20.90
2012,10,19,11,10,20.90
2012,10,19,11,11,19.30
2012,10,19,11,12,20.90
2012,10,19,11,13,22.50
2012,10,19,11,14,17.70
2012,10,19,11,15,20.90
2012,10,19,11,16,20.90
2012,10,19,11,17,16.10
2012,10,19,11,18,14.50
2012,10,19,11,19,17.70
2012,10,19,11,20,14.50
2012,10,19,11,21,14.50
2012,10,19,11,22,16.10
2012,10,19,11,23,16.10
2012,10,19,11,24,20.90
2012,10,19,11,25,19.30
2012,10,19,11,26,14.50
2012,10,19,11,27,14.50
2012,10,19,11,28,12.90
2012,10,19,11,29,6.40
2012,10,19,11,30,9.60
2012,10,19,11,31,6.40
2012,10,19,11,32,14.50
2012,10,19,11,33,11.30
2012,10,19,11,34,9.60
2012,10,19,11,35,9.60
2012,10,19,11,36,17.70
2012,10,19,11,37,17.70
2012,10,19,11,38,16.10
2012,10,19,11,39,19.30
2012,10,19,11,40,20.90
2012,10,19,11,41,25.70
2012,10,19,11,42,17.70
2012,10,19,11,43,11.30
2012,10,19,11,44,16.10
2012,10,19,11,45,22.50
2012,10,19,11,46,22.50
2012,10,19,11,47,24.20
2012,10,19,11,48,19.30
2012,10,19,11,49,24.20
2012,10,19,11,50,19.30
2012,10,19,11,51,20.90
2012,10,19,11,52,19.30
2012,10,19,11,53,14.50
2012,10,19,11,54,16.10
2012,10,19,11,55,20.90
2012,10,19,11,56,29.00
2012,10,19,11,57,20.90
2012,10,19,11,58,20.90
2012,10,19,11,59,24.20
2012,10,19,12,00,22.50
2012,10,19,12,01,24.20
2012,10,19,12,02,33.80
2012,10,19,12,03,27.40
2012,10,19,12,04,32.20
2012,10,19,12,05,35.40
2012,10,19,12,06,22.50
2012,10,19,12,07,30.60
2012,10,19,12,08,22.50
2012,10,19,12,09,30.60
2012,10,19,12,10,25.70
2012,10,19,12,11,25.70
2012,10,19,12,12,22.50
2012,10,19,12,13,24.20
2012,10,19,12,14,32.20
2012,10,19,12,15,22.50
2012,10,19,12,16,17.70
2012,10,19,12,17,17.70
2012,10,19,12,18,27.40
2012,10,19,12,19,24.20
2012,10,19,12,20,32.20
2012,10,19,12,21,33.80
2012,10,19,12,22,29.00
2012,10,19,12,23,29.00
2012,10,19,12,24,40.20
2012,10,19,12,25,38.60
2012,10,19,12,26,29.00
2012,10,19,12,27,29.00
2012,10,19,12,28,27.40
2012,10,19,12,29,29.00
2012,10,19,12,30,24.20
2012,10,19,12,31,17.70
2012,10,19,12,32,27.40
2012,10,19,12,33,24.20
2012,10,19,12,34,22.50
2012,10,19,12,35,30.60
2012,10,19,12,36,32.20
2012,10,19,12,37,35.40
2012,10,19,12,38,32.20
2012,10,19,12,39,29.00
2012,10,19,12,40,25.70
2012,10,19,12,41,12.90
2012,10,19,12,42,17.70
2012,10,19,12,43,24.20
2012,10,19,12,44,20.90
2012,10,19,12,45,17.70
2012,10,19,12,46,27.40
2012,10,19,12,47,30.60
2012,10,19,12,48,30.60
2012,10,19,12,49,27.40
2012,10,19,12,50,20.90
2012,10,19,12,51,22.50
2012,10,19,12,52,30.60
2012,10,19,12,53,25.70
2012,10,19,12,54,24.20
2012,10,19,12,55,32.20
2012,10,19,12,56,30.60
2012,10,19,12,57,30.60
2012,10,19,12,58,29.00
2012,10,19,12,59,29.00
2012,10,19,13,00,27.40
2012,10,19,13,01,30.60
2012,10,19,13,02,33.80
2012,10,19,13,03,27.40
2012,10,19,13,04,30.60
2012,10,19,13,05,29.00
2012,10,19,13,06,33.80
2012,10,19,13,07,33.80
2012,10,19,13,08,30.60
2012,10,19,13,09,17.70
2012,10,19,13,10,32.20
2012,10,19,13,11,32.20
2012,10,19,13,12,27.40
2012,10,19,13,13,27.40
2012,10,19,13,14,37.00
2012,10,19,13,15,27.40
2012,10,19,13,16,35.40
2012,10,19,13,17,27.40
2012,10,19,13,18,35.40
2012,10,19,13,19,33.80
2012,10,19,13,20,14.50
2012,10,19,13,21,19.30
2012,10,19,13,22,30.60
2012,10,19,13,23,24.20
2012,10,19,13,24,25.70
2012,10,19,13,25,27.40
2012,10,19,13,26,37.00
2012,10,19,13,27,30.60
2012,10,19,13,28,29.00
2012,10,19,13,29,25.70
2012,10,19,13,30,24.20
2012,10,19,13,31,22.50
2012,10,19,13,32,16.10
2012,10,19,13,33,32.20
2012,10,19,13,34,29.00
2012,10,19,13,35,38.60
2012,10,19,13,36,37.00
2012,10,19,13,37,32.20
2012,10,19,13,38,25.70
2012,10,19,13,39,29.00
2012,10,19,13,40,20.90
2012,10,19,13,41,14.50
2012,10,19,13,42,17.70
2012,10,19,13,43,9.60
2012,10,19,13,44,25.70
2012,10,19,13,45,19.30
2012,10,19,13,46,17.70
2012,10,19,13,47,24.20
2012,10,19,13,48,22.50
2012,10,19,13,49,19.30
2012,10,19,13,50,9.60
2012,10,19,13,51,6.40
2012,10,19,13,52,6.40
2012,10,19,13,53,6.40
2012,10,19,13,54,12.90
2012,10,19,13,55,9.60
2012,10,19,13,56,9.60
2012,10,19,13,57,9.60
2012,10,19,13,58,11.30
2012,10,19,13,59,11.30
2012,10,19,14,00,16.10
2012,10,19,14,01,6.40
2012,10,19,14,02,6.40
2012,10,19,14,03,20.90
2012,10,19,14,04,22.50
2012,10,19,14,05,17.70
2012,10,19,14,06,27.40
2012,10,19,14,07,17.70
2012,10,19,14,08,25.70
2012,10,19,14,09,12.90
2012,10,19,14,10,3.20
2012,10,19,14,11,14.50
2012,10,19,14,12,9.60
2012,10,19,14,13,16.10
2012,10,19,14,14,17.70
2012,10,19,14,15,11.30
2012,10,19,14,16,24.20
2012,10,19,14,17,24.20
2012,10,19,14,18,24.20
2012,10,19,14,19,30.60
2012,10,19,14,20,22.50
2012,10,19,14,21,24.20
2012,10,19,14,22,19.30
2012,10,19,14,23,16.10
2012,10,19,14,24,19.30
2012,10,19,14,25,16.10
2012,10,19,14,26,24.20
2012,10,19,14,27,25.70
2012,10,19,14,28,16.10
2012,10,19,14,29,9.60
2012,10,19,14,30,20.90
2012,10,19,14,31,25.70
2012,10,19,14,32,24.20
2012,10,19,14,33,24.20
2012,10,19,14,34,24.20
2012,10,19,14,35,22.50
2012,10,19,14,36,14.50
2012,10,19,14,37,20.90
2012,10,19,14,38,19.30
2012,10,19,14,39,27.40
2012,10,19,14,40,27.40
2012,10,19,14,41,24.20
2012,10,19,14,42,24.20
2012,10,19,14,43,30.60
2012,10,19,14,44,32.20
2012,10,19,14,45,24.20
2012,10,19,14,46,27.40
2012,10,19,14,47,33.80
2012,10,19,14,48,24.20
2012,10,19,14,49,24.20
2012,10,19,14,50,20.90
2012,10,19,14,51,27.40
2012,10,19,14,52,19.30
2012,10,19,14,53,25.70
2012,10,19,14,54,22.50
2012,10,19,14,55,29.00
2012,10,19,14,56,30.60
2012,10,19,14,57,19.30
2012,10,19,14,58,25.70
2012,10,19,14,59,20.90
2012,10,19,15,00,20.90
2012,10,19,15,01,30.60
2012,10,19,15,02,22.50
2012,10,19,15,03,19.30
2012,10,19,15,04,25.70
2012,10,19,15,05,20.90
2012,10,19,15,06,11.30
2012,10,19,15,07,22.50
2012,10,19,15,08,25.70
2012,10,19,15,09,24.20
2012,10,19,15,10,27.40
2012,10,19,15,11,20.90
2012,10,19,15,12,17.70
2012,10,19,15,13,17.70
2012,10,19,15,14,17.70
2012,10,19,15,15,19.30
2012,10,19,15,16,16.10
2012,10,19,15,17,29.00
2012,10,19,15,18,22.50
2012,10,19,15,19,20.90
2012,10,19,15,20,19.30
2012,10,19,15,21,22.50
2012,10,19,15,22,16.10
2012,10,19,15,23,16.10
2012,10,19,15,24,27.40
2012,10,19,15,25,30.60
2012,10,19,15,26,24.20
2012,10,19,15,27,24.20
2012,10,19,15,28,33.80
2012,10,19,15,29,35.40
2012,10,19,15,30,22.50
2012,10,19,15,31,24.20
2012,10,19,15,32,25.70
2012,10,19,15,33,25.70
2012,10,19,15,34,29.00
2012,10,19,15,35,17.70
2012,10,19,15,36,14.50
2012,10,19,15,37,20.90
2012,10,19,15,38,20.90
2012,10,19,15,39,25.70
2012,10,19,15,40,19.30
2012,10,19,15,41,16.10
2012,10,19,15,42,16.10
2012,10,19,15,43,19.30
2012,10,19,15,44,11.30
2012,10,19,15,45,27.40
2012,10,19,15,46,25.70
2012,10,19,15,47,24.20
2012,10,19,15,48,27.40
2012,10,19,15,49,30.60
2012,10,19,15,50,20.90
2012,10,19,15,51,25.70
2012,10,19,15,52,30.60
2012,10,19,15,53,25.70
2012,10,19,15,54,19.30
2012,10,19,15,55,22.50
2012,10,19,15,56,27.40
2012,10,19,15,57,32.20
2012,10,19,15,58,33.80
2012,10,19,15,59,27.40
2012,10,19,16,00,30.60
2012,10,19,16,01,25.70
2012,10,19,16,02,25.70
2012,10,19,16,03,24.20
2012,10,19,16,04,35.40
2012,10,19,16,05,32.20
2012,10,19,16,06,27.40
2012,10,19,16,07,30.60
2012,10,19,16,08,20.90
2012,10,19,16,09,14.50
2012,10,19,16,10,17.70
2012,10,19,16,11,14.50
2012,10,19,16,12,11.30
2012,10,19,16,13,24.20
2012,10,19,16,14,24.20
2012,10,19,16,15,22.50
2012,10,19,16,16,17.70
2012,10,19,16,17,11.30
2012,10,19,16,18,8.10
2012,10,19,16,19,14.50
2012,10,19,16,20,11.30
2012,10,19,16,21,8.10
2012,10,19,16,22,11.30
2012,10,19,16,23,9.60
2012,10,19,16,24,16.10
2012,10,19,16,25,17.70
2012,10,19,16,26,16.10
2012,10,19,16,27,14.50
2012,10,19,16,28,14.50
2012,10,19,16,29,22.50
2012,10,19,16,30,17.70
2012,10,19,16,31,16.10
2012,10,19,16,32,14.50
2012,10,19,16,33,17.70
2012,10,19,16,34,8.10
2012,10,19,16,35,19.30
2012,10,19,16,36,14.50
2012,10,19,16,37,17.70
2012,10,19,16,38,8.10
2012,10,19,16,39,11.30
2012,10,19,16,40,14.50
2012,10,19,16,41,11.30
2012,10,19,16,42,12.90
2012,10,19,16,43,8.10
2012,10,19,16,44,11.30
2012,10,19,16,45,12.90
2012,10,19,16,46,17.70
2012,10,19,16,47,14.50
2012,10,19,16,48,11.30
2012,10,19,16,49,14.50
2012,10,19,16,50,12.90
2012,10,19,16,51,19.30
2012,10,19,16,52,20.90
2012,10,19,16,53,17.70
2012,10,19,16,54,19.30
2012,10,19,16,55,20.90
2012,10,19,16,56,17.70
2012,10,19,16,57,17.70
2012,10,19,16,58,24.20
2012,10,19,16,59,22.50
2012,10,19,17,00,19.30
2012,10,19,17,01,11.30
2012,10,19,17,02,11.30
2012,10,19,17,03,19.30
2012,10,19,17,04,14.50
2012,10,19,17,05,17.70
2012,10,19,17,06,22.50
2012,10,19,17,07,17.70
2012,10,19,17,08,16.10
2012,10,19,17,09,11.30
2012,10,19,17,10,20.90
2012,10,19,17,11,16.10
2012,10,19,17,12,9.60
2012,10,19,17,13,11.30
2012,10,19,17,14,14.50
2012,10,19,17,15,11.30
2012,10,19,17,16,11.30
2012,10,19,17,17,8.10
2012,10,19,17,18,12.90
2012,10,19,17,19,16.10
2012,10,19,17,20,8.10
2012,10,19,17,21,6.40
2012,10,19,17,22,9.60
2012,10,19,17,23,17.70
2012,10,19,17,24,9.60
2012,10,19,17,25,9.60